Location: Unspecified
(0.0000°N, 0.0000°E)
Time: 11:17:54
(UTC+00:00)

Vanguard 1 - Pass Details

Date: 25 November 2019
Orbit: 651 x 3832 km, 34.3° (Epoch: 13 December)

Event Time Altitude Azimuth Distance (km) Brightness Sun altitude
Rises 04:32:44 0° 232° (SW) 7,683 14.3 -17.3°
Reaches altitude 10° 04:37:43 10° 231° (SW) 6,824 14.0 -16.1°
Maximum altitude 05:01:48 88° 141° (SE) 3,527 12.8 -10.5°
Drops below altitude 10° 05:19:13 10° 53° (NE) 5,213 14.2 -6.5°
Sets 05:22:25 0° 53° (NE) 5,886 14.5 -5.7°
